COSMOS 2251 DEB, 34554

Orbit data source: Space-Track

COSMOS 2251 DEB, 34554 is space debris in LEO originally from a launch on Wed, 16 Jun 1993 UTC launched from the Plesetsk Missile And Space Complex (PKMTR). The debris from Iridium 33, an American commercial communications satellite, has been tracked extensively since its accidental collision with the defunct Russian satellite Cosmos 2251 in 2009. This event, occurring at high speed in low Earth orbit (LEO), generated thousands of pieces of space debris, significantly increasing the risk of further collisions. The Iridium 33 debris cloud has impacted space traffic management and orbital debris mitigation strategies, making it a subject of ongoing study in space situational awareness.

Loading next visibility...
Identifier
34554, 1993-036UQ
Orbit
LEO
Country
Flag of CISCIS
Related business
Manufacturer
Unknown
Mission
Spacecraft
Bus & Motor
Unknown
Mass
Unknown
Launch date (UTC)
1993-06-16 (33 years ago)
Launch vehicle
Unknown
Launch site
Plesetsk Missile And Space Complex (PKMTR)
Object type
Payload
Rocket body
Debris
Shape & HBR
Unknown shape, 0.1 m
Radar Cross Section
Small (<0.1 m²)

Expand to show TLE details & history
Last TLE update: 1 day ago

TLE from 1 day ago
0 COSMOS 2251 DEB
1 34554U 93036UQ  26207.15931635  .00000698  00000-0  23728-3 0  9990
2 34554  74.0369 243.7779 0024671 257.0624 161.3599 14.38319825909968
Epoch: 2026-07-26T03:49Z
TLE epoch observation values (Epoch: 2026-07-26T03:49:24.932Z)
Latitude
55.18003°
Longitude
-93.29028°
Altitude
789.553 km
Speed
7.456 km/s
True Right ascension
17h 51m 41s
True Declination
55° 01' 10"
Sunlit
Object was in daylight at epoch
Visualization orbit readout
Latitude
Unknown
Longitude
Unknown
Altitude
Unknown
Speed
Unknown
Apparent Right ascension
Unknown
Apparent Declination
Unknown
Sunlit
N/A
Visualization observer readout
Local Sidereal Time
03:07:41
Azimuth
Unknown
Elevation
Unknown
Doppler factor
Unknown
Orbital elements
Apogee altitude
779.291 km
Perigee altitude
744.062 km
Semi-major axis
7,139.814 km
Eccentricity
0.00247
Inclination
74.0369°
RAAN
243.7779°
Arg. of periapsis
257.0624°
True anomaly
161.45°
Mean anomaly
161.3599°
Eccentric anomaly
161.40497°
Mean motion
3.5976 °/min
Orbital period
100.07 mins
BSTAR
0.00023728
Loading maneuver chart data...
Computing Atmospheric mass density...

Documentation

Showing up to 5 results
|